Location: Dead Woman Crossing
(43.5369°N, 106.3228°W)
Time: 16:55:04
(UTC+00:00)

QB50P2 - Pass Details

Date: 03 July 2022
Orbit: 590 x 605 km, 97.9° (Epoch: 18 August)

Event Time Altitude Azimuth Distance (km) Brightness Sun altitude
Rises 08:29:16 0° 13° (NNE) 2,863 ? -21.0°
Reaches altitude 10° 08:31:27 10° 14° (NNE) 1,957 ? -20.9°
Maximum altitude 08:35:42 83° 101° (ESE) 615 ? -20.6°
Enters shadow 08:36:36 55° 183° (S) 727 ? -20.6°
